Location: Musselshell
(46.5176°N, 108.0911°W)
Time: 01:30:48
(UTC+00:00)

VELOX 1 - Visible Passes

Search period start: 30 June 2022 00:00
Search period end: 10 July 2022 00:00
Orbit: 625 x 638 km, 98.4° (Epoch: 24 June)

Date Brightness Start Highest point End Pass type
(mag) Time Alt. Az. Time Alt. Az. Time Alt. Az.
30 Jun ? 10:35:07 10° ESE 10:38:34 23° ENE 10:42:03 10° NNE visible
03 Jul ? 10:03:44 10° ENE 10:05:21 12° ENE 10:06:59 10° NE visible
04 Jul ? 10:23:02 10° ESE 10:25:58 18° ENE 10:28:56 10° NNE visible
05 Jul ? 10:42:58 10° ESE 10:46:39 27° ENE 10:50:21 10° N visible
08 Jul ? 10:11:08 10° E 10:13:20 14° ENE 10:15:33 10° NNE visible
09 Jul ? 10:30:43 10° ESE 10:33:57 20° ENE 10:37:13 10° NNE visible
